KT5AL Weather Reports


Display with metric or nautical units.
time (UTC)temp
F
wind
direction
speed
MPH
gust
MPH
rain 1hr
in
rain 24hr
in
rain mn
in
humidity
%
barometer
mb
20260510051505 73 112 6.0 8.0 0.00 0.00 0.00 79 1008.7
20260510051002 73 112 6.0 8.0 0.00 0.00 0.00 79 1008.7
20260510050505 73 112 8.0 10.0 0.00 0.00 0.00 79 1008.7
20260510050008 73 112 8.0 10.0 0.00 0.00 0.00 80 1008.7
20260510045506 73 112 6.0 9.0 0.00 0.00 0.00 80 1008.7
20260510045003 73 135 5.0 7.0 0.00 0.00 0.00 80 1008.7
20260510044503 73 112 6.0 8.0 0.00 0.00 0.00 80 1008.3
20260510044007 73 112 6.0 8.0 0.00 0.00 0.00 80 1008.3
20260510043541 73 112 8.0 10.0 0.00 0.00 0.00 81 1008.0
20260510043006 73 112 8.0 10.0 0.00 0.00 0.00 81 1008.0
20260510042503 73 135 6.0 10.0 0.00 0.00 0.00 82 1008.0
20260510042006 73 112 8.0 10.0 0.00 0.00 0.00 82 1008.0
20260510041503 73 112 8.0 10.0 0.00 0.00 0.00 81 1008.0
20260510041006 73 135 7.0 10.0 0.00 0.00 0.00 80 1008.0
20260510040503 73 157 7.0 10.0 0.00 0.00 0.00 78 1008.0
20260510040006 74 157 6.0 10.0 0.00 0.00 0.00 75 1008.0
20260510035503 74 135 6.0 10.0 0.00 0.00 0.00 73 1008.0
20260510035007 75 180 6.0 9.0 0.00 0.00 0.00 72 1008.0
20260510034504 75 135 6.0 8.0 0.00 0.00 0.00 70 1008.0
20260510034007 76 135 7.0 10.0 0.00 0.00 0.00 71 1008.0
20260510033504 76 157 9.0 11.0 0.00 0.00 0.00 70 1007.7
20260510033007 76 112 9.0 12.0 0.00 0.00 0.00 69 1007.7
20260510032504 76 112 9.0 11.0 0.00 0.00 0.00 68 1007.7
20260510032007 77 112 9.0 14.0 0.00 0.00 0.00 67 1007.7
20260510031504 77 112 9.0 10.0 0.00 0.00 0.00 67 1007.7
20260510031007 77 135 9.0 12.0 0.00 0.00 0.00 66 1007.7
20260510030505 77 112 11.0 15.0 0.00 0.00 0.00 65 1007.7
20260510030009 77 112 8.0 12.0 0.00 0.00 0.00 64 1007.7
20260510025505 77 112 6.0 9.0 0.00 0.00 0.00 64 1007.7
20260510025008 77 112 7.0 10.0 0.00 0.00 0.00 63 1007.7
20260510024505 77 112 8.0 10.0 0.00 0.00 0.00 63 1007.7
20260510024008 78 112 8.0 11.0 0.00 0.00 0.00 63 1007.7
20260510023506 78 90 9.0 11.0 0.00 0.00 0.00 63 1007.3
20260510022505 78 112 9.0 11.0 0.00 0.00 0.00 63 1007.3
20260510022007 78 112 9.0 11.0 0.00 0.00 0.00 63 1007.3
20260510021504 78 90 10.0 13.0 0.00 0.00 0.00 63 1007.3
20260510021007 78 90 9.0 11.0 0.00 0.00 0.00 64 1007.3
20260510020504 78 90 9.0 12.0 0.00 0.00 0.00 64 1007.0
20260510020007 79 90 9.0 12.0 0.00 0.00 0.00 64 1007.0
20260510015504 79 90 10.0 12.0 0.00 0.00 0.00 65 1007.0
20260510015007 79 90 9.0 12.0 0.00 0.00 0.00 66 1007.0
20260510014504 79 90 10.0 12.0 0.00 0.00 0.00 66 1006.6
20260510014005 79 90 9.0 11.0 0.00 0.00 0.00 66 1006.6
20260510012509 80 67 7.0 11.0 0.00 0.00 0.00 64 1006.0
20260510012006 80 90 8.0 11.0 0.00 0.00 0.00 64 1006.0
20260510011504 80 90 9.0 11.0 0.00 0.00 0.00 65 1005.6
20260510011007 81 112 7.0 9.0 0.00 0.00 0.00 64 1005.6
20260510010504 81 112 6.0 8.0 0.00 0.00 0.00 64 1005.3
20260510010008 82 90 7.0 9.0 0.00 0.00 0.00 62 1005.3
20260510005505 82 90 9.0 13.0 0.00 0.00 0.00 61 1004.9
20260510005010 83 90 7.0 10.0 0.00 0.00 0.00 57 1004.9
20260510004505 83 112 8.0 11.0 0.00 0.00 0.00 54 1004.6
20260510004008 84 135 7.0 10.0 0.00 0.00 0.00 51 1004.6
20260510003505 85 157 5.0 9.0 0.00 0.00 0.00 50 1004.6
20260510003005 85 135 5.0 6.0 0.00 0.00 0.00 48 1004.6
20260510002541 86 135 5.0 7.0 0.00 0.00 0.00 47 1004.6
20260510002005 86 157 6.0 8.0 0.00 0.00 0.00 46 1004.6
20260510001509 86 157 5.0 7.0 0.00 0.00 0.00 46 1004.3
20260510000507 86 157 6.0 8.0 0.00 0.00 0.00 46 1004.6
20260510000004 87 157 7.0 10.0 0.00 0.00 0.00 45 1004.6
20260509235009 87 157 9.0 10.0 0.00 0.00 0.00 44 1004.3
20260509234505 87 135 9.0 11.0 0.00 0.00 0.00 43 1004.3
20260509234008 87 157 6.0 9.0 0.00 0.00 0.00 45 1004.3
20260509233506 87 157 8.0 11.0 0.00 0.00 0.00 46 1004.3
20260509233009 87 157 8.0 10.0 0.00 0.00 0.00 45 1004.3
20260509232504 88 157 6.0 10.0 0.00 0.00 0.00 44 1003.9
20260509232007 88 157 7.0 9.0 0.00 0.00 0.00 44 1003.9
20260509231504 87 90 7.0 10.0 0.00 0.00 0.00 45 1003.9
20260509231007 87 90 8.0 10.0 0.00 0.00 0.00 43 1003.9
20260509230006 86 45 5.0 7.0 0.00 0.00 0.00 42 1003.9
20260509225505 88 67 7.0 9.0 0.00 0.00 0.00 41 1003.9
20260509225008 87 360 2.0 3.0 0.00 0.00 0.00 41 1003.9
20260509224505 87 112 5.0 10.0 0.00 0.00 0.00 42 1003.9
20260509224008 87 45 3.0 5.0 0.00 0.00 0.00 41 1003.9
20260509223505 87 22 3.0 4.0 0.00 0.00 0.00 41 1003.6
20260509223009 87 67 7.0 9.0 0.00 0.00 0.00 40 1003.6
20260509222505 88 360 4.0 5.0 0.00 0.00 0.00 40 1003.9
20260509222036 88 135 2.0 5.0 0.00 0.00 0.00 41 1003.9
20260509221505 88 112 6.0 9.0 0.00 0.00 0.00 41 1003.9
20260509221008 88 337 2.0 3.0 0.00 0.00 0.00 42 1003.9
20260509220505 88 360 6.0 7.0 0.00 0.00 0.00 41 1003.9
20260509220008 89 22 0.0 4.0 0.00 0.00 0.00 41 1003.9
20260509215505 88 135 5.0 7.0 0.00 0.00 0.00 44 1003.9
20260509215008 87 22 3.0 5.0 0.00 0.00 0.00 44 1003.9
20260509214006 86 22 3.0 4.0 0.00 0.00 0.00 44 1004.3
20260509213503 86 360 2.0 7.0 0.00 0.00 0.00 46 1004.3
20260509213007 86 360 5.0 7.0 0.00 0.00 0.00 47 1004.3
20260509212503 86 67 7.0 8.0 0.00 0.00 0.00 47 1004.3
20260509211507 86 67 6.0 9.0 0.00 0.00 0.00 47 1004.6
20260509211004 86 90 4.0 5.0 0.00 0.00 0.00 48 1004.6
20260509210507 85 22 5.0 7.0 0.00 0.00 0.00 50 1004.6
20260509210005 85 22 8.0 9.0 0.00 0.00 0.00 49 1004.6
20260509205508 86 45 7.0 9.0 0.00 0.00 0.00 48 1004.9
20260509205005 86 67 5.0 7.0 0.00 0.00 0.00 50 1004.9
20260509204508 87 67 11.0 13.0 0.00 0.00 0.00 47 1005.3
20260509204005 87 157 5.0 7.0 0.00 0.00 0.00 49 1005.3
20260509203508 86 112 7.0 9.0 0.00 0.00 0.00 51 1005.3
20260509203006 85 90 7.0 11.0 0.00 0.00 0.00 49 1005.3
20260509202508 86 67 6.0 9.0 0.00 0.00 0.00 50 1005.3
20260509202006 85 112 7.0 10.0 0.00 0.00 0.00 50 1005.3
20260509201009 85 22 9.0 12.0 0.00 0.00 0.00 51 1005.6
20260509200503 85 90 6.0 7.0 0.00 0.00 0.00 53 1005.6
20260509195507 85 45 7.0 9.0 0.00 0.00 0.00 54 1006.0
20260509195004 84 360 6.0 7.0 0.00 0.00 0.00 52 1006.0
20260509194507 84 22 9.0 10.0 0.00 0.00 0.00 51 1006.0
20260509194004 84 67 5.0 7.0 0.00 0.00 0.00 54 1006.0
20260509193503 84 67 7.0 9.0 0.00 0.00 0.00 55 1006.0
20260509193006 85 22 5.0 7.0 0.00 0.00 0.00 54 1006.0
20260509192509 84 360 4.0 6.0 0.00 0.00 0.00 54 1006.3
20260509191534 84 337 6.0 7.0 0.00 0.00 0.00 54 1006.3
20260509191004 83 315 5.0 6.0 0.00 0.00 0.00 54 1006.3
20260509190507 83 315 3.0 5.0 0.00 0.00 0.00 53 1006.6
20260509190007 83 22 5.0 7.0 0.00 0.00 0.00 54 1006.6
20260509185504 83 337 7.0 9.0 0.00 0.00 0.00 57 1006.6
20260509185007 83 45 4.0 6.0 0.00 0.00 0.00 56 1006.6
20260509184504 84 45 6.0 9.0 0.00 0.00 0.00 56 1006.6
20260509184007 84 22 4.0 6.0 0.00 0.00 0.00 56 1006.6
20260509183504 83 45 6.0 9.0 0.00 0.00 0.00 57 1007.0
20260509183007 82 337 2.0 5.0 0.00 0.00 0.00 58 1007.0
20260509182504 82 22 7.0 10.0 0.00 0.00 0.00 61 1007.0
20260509182007 82 337 5.0 7.0 0.00 0.00 0.00 61 1007.0
20260509181504 82 337 4.0 9.0 0.00 0.00 0.00 62 1007.0
20260509181008 82 22 5.0 7.0 0.00 0.00 0.00 62 1007.0
20260509180505 82 45 9.0 10.0 0.00 0.00 0.00 61 1007.3
20260509180008 82 337 6.0 9.0 0.00 0.00 0.00 63 1007.3
20260509175505 82 315 4.0 6.0 0.00 0.00 0.00 62 1007.3
20260509175004 81 22 5.0 6.0 0.00 0.00 0.00 62 1007.3
20260509174507 82 360 9.0 11.0 0.00 0.00 0.00 62 1007.7
20260509174004 81 315 3.0 5.0 0.00 0.00 0.00 62 1007.7
20260509173507 81 360 6.0 8.0 0.00 0.00 0.00 63 1007.7
20260509172505 81 337 7.0 9.0 0.00 0.00 0.00 61 1007.7
20260509172004 81 22 3.0 5.0 0.00 0.00 0.00 64 1007.7
20260509171507 80 360 7.0 9.0 0.00 0.00 0.00 62 1007.7
20260509171030 81 22 7.0 9.0 0.00 0.00 0.00 61 1007.7
20260509170508 80 337 4.0 5.0 0.00 0.00 0.00 61 1008.0
20260509170004 79 315 8.0 9.0 0.00 0.00 0.00 61 1008.0
20260509165507 79 315 7.0 9.0 0.00 0.00 0.00 61 1008.0
20260509165004 80 315 9.0 11.0 0.00 0.00 0.00 59 1008.0
20260509164507 79 315 5.0 6.0 0.00 0.00 0.00 59 1008.3
20260509163505 79 315 9.0 10.0 0.00 0.00 0.00 60 1008.3
20260509163008 79 315 10.0 12.0 0.00 0.00 0.00 60 1008.3
20260509162505 78 315 5.0 7.0 0.00 0.00 0.00 61 1008.3
20260509162003 78 337 6.0 8.0 0.00 0.00 0.00 65 1008.3
20260509161506 78 315 8.0 11.0 0.00 0.00 0.00 62 1008.3
20260509161003 78 337 5.0 7.0 0.00 0.00 0.00 62 1008.3
20260509160507 78 292 9.0 12.0 0.00 0.00 0.00 64 1008.3
20260509160004 78 337 9.0 10.0 0.00 0.00 0.00 62 1008.3
20260509155507 78 315 9.0 10.0 0.00 0.00 0.00 64 1008.3
20260509155004 78 360 6.0 10.0 0.00 0.00 0.00 66 1008.3
20260509154507 77 292 10.0 12.0 0.00 0.00 0.00 64 1008.7
20260509154005 77 292 7.0 9.0 0.00 0.00 0.00 65 1008.7
20260509153508 77 292 10.0 12.0 0.00 0.00 0.00 63 1008.3
20260509153005 77 315 10.0 13.0 0.00 0.00 0.00 67 1008.3
20260509152506 77 292 11.0 13.0 0.00 0.00 0.00 64 1008.7
20260509152003 76 337 8.0 11.0 0.00 0.00 0.00 66 1008.7
20260509151506 76 292 9.0 11.0 0.00 0.00 0.00 63 1009.0
20260509151004 76 292 11.0 13.0 0.00 0.00 0.00 69 1009.0
20260509150008 75 292 11.0 13.0 0.00 0.00 0.00 73 1008.7
20260509145505 75 292 13.0 15.0 0.00 0.00 0.00 68 1008.7
20260509144503 76 292 8.0 10.0 0.00 0.00 0.00 72 1008.7
20260509144006 75 292 10.0 11.0 0.00 0.00 0.00 71 1008.7
20260509143506 75 292 10.0 14.0 0.00 0.00 0.00 70 1009.0
20260509143005 75 292 8.0 11.0 0.00 0.00 0.00 73 1009.0
20260509142504 75 292 11.0 12.0 0.00 0.00 0.00 76 1009.0
20260509141506 74 292 10.0 11.0 0.00 0.00 0.00 81 1009.0
20260509141009 74 292 10.0 12.0 0.00 0.00 0.00 84 1009.0
20260509140532 73 292 10.0 11.0 0.00 0.00 0.00 86 1009.7
20260509140009 73 315 8.0 10.0 0.00 0.00 0.00 89 1009.7
20260509135506 73 315 10.0 12.0 0.00 0.00 0.00 92 1010.0
20260509134504 72 315 6.0 7.0 0.00 0.00 0.00 96 1010.4
20260509134007 72 315 7.0 10.0 0.00 0.00 0.00 97 1010.4
20260509133504 71 315 7.0 9.0 0.00 0.00 0.00 98 1010.4
20260509133007 71 315 8.0 10.0 0.00 0.00 0.00 99 1010.4
20260509132504 70 315 8.0 10.0 0.00 0.00 0.00 99 1010.7
20260509132007 70 292 6.0 8.0 0.00 0.00 0.00 100 1010.7
20260509131507 70 315 8.0 10.0 0.00 0.00 0.00 100 1010.7
20260509131004 69 315 9.0 10.0 0.00 0.00 0.00 100 1010.7
20260509130008 69 337 8.0 10.0 0.00 0.00 0.00 100 1010.7
20260509125505 68 315 8.0 10.0 0.00 0.00 0.00 100 1011.0
20260509125003 68 292 8.0 10.0 0.00 0.00 0.00 100 1011.0
20260509124506 67 292 8.0 10.0 0.00 0.00 0.00 100 1011.0
20260509124004 67 315 6.0 7.0 0.00 0.00 0.00 100 1011.0
20260509123507 67 315 6.0 8.0 0.00 0.00 0.00 100 1011.4
20260509123003 66 315 6.0 8.0 0.00 0.00 0.00 100 1011.4
20260509122506 66 315 7.0 9.0 0.00 0.00 0.00 100 1011.4
20260509122006 66 315 7.0 9.0 0.00 0.00 0.00 100 1011.4
20260509121508 66 315 7.0 9.0 0.00 0.00 0.00 100 1011.7
20260509121005 66 292 7.0 8.0 0.00 0.00 0.00 100 1011.7
20260509120508 66 315 6.0 7.0 0.00 0.00 0.00 100 1011.4
20260509120043 66 292 7.0 9.0 0.00 0.00 0.00 100 1011.4
20260509115506 66 315 7.0 9.0 0.00 0.00 0.00 100 1011.0
20260509115009 66 315 9.0 11.0 0.00 0.00 0.00 100 1011.0
20260509114506 66 292 6.0 7.0 0.00 0.00 0.00 100 1011.4
20260509114003 66 292 8.0 9.0 0.00 0.00 0.00 100 1011.4
20260509113507 66 292 7.0 9.0 0.00 0.00 0.00 100 1011.0
20260509113004 66 292 7.0 8.0 0.00 0.00 0.00 100 1011.0
20260509112507 66 292 7.0 9.0 0.00 0.00 0.00 100 1010.7
20260509112004 66 292 9.0 10.0 0.00 0.00 0.00 100 1010.7
20260509111507 66 315 7.0 8.0 0.00 0.00 0.00 100 1011.0
20260509111005 66 292 8.0 9.0 0.00 0.00 0.00 100 1011.0
20260509110509 66 292 8.0 10.0 0.00 0.00 0.00 100 1011.0
20260509110006 66 270 9.0 10.0 0.00 0.03 0.00 100 1011.0
20260509105509 66 247 10.0 12.0 0.00 0.08 0.00 100 1010.4
20260509105006 66 270 7.0 9.0 0.00 0.09 0.00 100 1010.4
20260509104003 66 315 6.0 9.0 0.00 0.09 0.00 100 1010.4
20260509103506 66 337 7.0 8.0 0.00 0.09 0.00 100 1010.0
20260509103003 67 337 7.0 9.0 0.00 0.09 0.00 100 1010.0
20260509102507 67 360 7.0 10.0 0.00 0.09 0.00 100 1010.4
20260509102003 67 337 7.0 8.0 0.00 0.09 0.00 100 1010.4
20260509101506 67 315 8.0 9.0 0.00 0.09 0.00 100 1010.4
20260509101003 67 315 8.0 10.0 0.00 0.09 0.00 100 1010.4
20260509100007 67 315 5.0 6.0 0.00 0.09 0.00 100 1009.7
20260509095531 67 292 4.0 5.0 0.00 0.09 0.00 100 1009.4
20260509095007 67 292 2.0 4.0 0.00 0.09 0.00 100 1009.4
20260509094504 67 90 1.0 3.0 0.00 0.09 0.00 100 1009.0
20260509094007 68 90 3.0 4.0 0.00 0.09 0.00 100 1009.0
20260509093504 68 67 6.0 8.0 0.00 0.09 0.00 100 1008.3
20260509092508 68 67 12.0 16.0 0.00 0.09 0.00 100 1008.3
20260509092005 68 45 10.0 15.0 0.00 0.09 0.00 100 1008.3
20260509091508 68 45 11.0 18.0 0.00 0.09 0.00 100 1008.0
20260509091005 68 22 8.0 10.0 0.00 0.09 0.00 100 1008.0
20260509090510 68 45 11.0 16.0 0.00 0.09 0.00 100 1008.3
20260509090005 69 45 10.0 15.0 0.00 0.09 0.00 100 1008.3
20260509085508 69 22 10.0 15.0 0.00 0.09 0.00 100 1007.7
20260509085005 69 360 12.0 16.0 0.00 0.09 0.00 100 1007.7
20260509084004 69 22 16.0 22.0 0.00 0.09 0.00 99 1007.7
20260509083508 70 337 13.0 18.0 0.00 0.09 0.00 93 1007.7
20260509083005 70 337 13.0 18.0 0.00 0.09 0.00 92 1007.7
20260509082508 70 337 11.0 14.0 0.00 0.09 0.00 92 1007.7
20260509082005 70 360 10.0 13.0 0.00 0.09 0.00 96 1007.7
20260509081508 70 337 11.0 15.0 0.00 0.09 0.00 99 1007.0
20260509081005 69 225 7.0 9.0 0.00 0.09 0.00 100 1007.0
20260509080508 69 180 9.0 11.0 0.00 0.09 0.00 100 1006.6
20260509080005 70 180 9.0 13.0 0.00 0.09 0.00 100 1006.6
20260509074505 69 157 13.0 18.0 0.00 0.09 0.00 100 1007.7
20260509074008 69 180 11.0 16.0 0.00 0.09 0.00 100 1007.7
20260509073505 69 157 15.0 19.0 0.00 0.09 0.00 100 1008.3
20260509073008 69 202 19.0 25.0 0.00 0.09 0.00 100 1008.3
20260509072505 69 202 10.0 13.0 0.00 0.09 0.00 100 1009.0
20260509072008 69 202 16.0 23.0 0.00 0.09 0.00 100 1009.0
20260509071504 69 202 18.0 23.0 0.00 0.09 0.00 100 1009.4
20260509071007 69 202 17.0 21.0 0.00 0.09 0.00 100 1009.4
20260509070006 69 202 15.0 19.0 0.00 0.09 0.00 100 1009.7
20260509065511 68 202 17.0 22.0 0.00 0.09 0.00 100 1010.4
20260509065006 68 202 14.0 18.0 0.00 0.09 0.00 100 1010.4
20260509064504 68 202 16.0 18.0 0.00 0.09 0.00 100 1010.4
20260509064007 68 202 11.0 15.0 0.00 0.09 0.00 100 1010.4
20260509063504 68 202 10.0 13.0 0.00 0.09 0.00 100 1011.0
20260509063003 67 202 9.0 12.0 0.00 0.09 0.00 100 1011.0
20260509062506 67 202 9.0 11.0 0.00 0.09 0.00 100 1011.7
20260509062003 67 225 9.0 10.0 0.00 0.09 0.00 100 1011.7
20260509061506 67 225 9.0 11.0 0.00 0.09 0.00 100 1011.7
20260509061004 67 202 10.0 10.0 0.00 0.09 0.00 100 1011.7
20260509060507 67 225 11.0 14.0 0.00 0.09 0.00 100 1011.7
20260509060005 67 202 10.0 11.0 0.00 0.09 0.00 100 1011.7
20260509055507 67 225 9.0 10.0 0.00 0.09 0.00 100 1011.7
20260509055005 67 202 8.0 10.0 0.00 0.09 0.00 100 1011.7
20260509054528 67 202 7.0 8.0 0.00 0.09 0.00 100 1011.0
20260509054004 67 202 6.0 7.0 0.00 0.09 0.00 100 1011.0
20260509052511 67 202 4.0 5.0 0.00 0.09 0.00 100 1011.0
20260509052006 68 202 8.0 10.0 0.00 0.09 0.00 100 1011.0